Simultaneous Nadir Overpasses (SNOs) Predictions

Prediction of SNOs near US between AQUA and NPP Satellite Orbit:

Table of predicted SNOs near US for the next 10.0 days since TLE Epoch: 2/19/2022
Index Date (AQUA) Time (AQUA) AQUA Lat,Lon Date (NPP) Time (NPP) NPP Lat,Lon Distance(km) Time Diff (sec)
1 02/20/2022 18:17:04 49.98, -79.96 02/20/2022 18:10:39 49.70, -81.70 128.98 385
2 02/20/2022 19:55:57 49.99,-104.68 02/20/2022 19:52:07 49.59,-107.02 174.28 230
3 02/23/2022 09:23:56 22.29,-113.41 02/23/2022 09:16:13 22.45,-114.11 74.62 463
4 02/26/2022 06:30:32 45.43, -65.03 02/26/2022 06:30:56 45.91, -67.34 187.79 24
5 02/26/2022 08:08:08 49.93, -87.98 02/26/2022 08:11:05 50.51, -90.77 209.16 177
6 02/28/2022 19:06:12 49.94, -92.20 02/28/2022 19:01:23 49.57, -94.34 159.40 289
